Location: Caltech
(34.1382°N, 118.1253°W)
Time: 12:43:58
(UTC-08:00)

A-11 Canister half - All Passes

Search period start: 25 February 2017 00:00
Search period end: 07 March 2017 00:00
Orbit: 1514 x 1686 km, 47.2° (Epoch: 24 February)

Date Brightness Start Highest point End Pass type
(mag) Time Alt. Az. Time Alt. Az. Time Alt. Az.
25 Feb - 00:54:53 10° WSW 01:04:55 69° NNW 01:14:38 10° NE visible
25 Feb - 03:02:19 10° WNW 03:11:22 39° N 03:20:08 10° ENE visible
25 Feb - 05:09:14 10° NW 05:18:24 45° NNE 05:27:16 10° E visible
25 Feb - 07:14:31 10° NW 07:24:02 82° SW 07:33:17 10° SE daylight
25 Feb - 09:21:18 10° W 09:27:52 22° SW 09:34:23 10° S daylight
25 Feb - 22:28:09 10° SSW 22:37:18 40° SE 22:46:15 10° ENE night (unlit)
26 Feb - 00:31:52 10° WSW 00:41:57 72° NNW 00:51:44 10° NE visible
26 Feb - 02:39:12 10° WNW 02:48:19 39° N 02:57:10 10° ENE visible
26 Feb - 04:46:15 10° NW 04:55:23 44° NNE 05:04:14 10° E visible
26 Feb - 06:51:34 10° NW 07:01:09 86° SW 07:10:25 10° SE daylight
26 Feb - 08:58:07 10° WNW 09:05:03 24° SW 09:11:55 10° S daylight
26 Feb - 22:05:27 10° SSW 22:14:25 37° SE 22:23:13 10° ENE night (unlit)
27 Feb - 00:08:51 10° WSW 00:18:59 76° NNW 00:28:49 10° NE visible
27 Feb - 02:16:05 10° WNW 02:25:17 40° N 02:34:11 10° ENE visible
27 Feb - 04:23:14 10° NW 04:32:23 43° NNE 04:41:12 10° E visible
27 Feb - 06:28:38 10° NW 06:38:14 89° NE 06:47:32 10° SE daylight
27 Feb - 08:34:57 10° WNW 08:42:14 26° SW 08:49:25 10° S daylight
27 Feb - 21:42:46 10° S 21:51:33 35° SE 22:00:10 10° ENE night (unlit)
27 Feb - 23:45:52 10° WSW 23:56:01 79° NW 00:05:54 10° NE visible
28 Feb - 01:52:58 10° W 02:02:14 41° NNW 02:11:13 10° ENE visible
28 Feb - 04:00:14 10° NW 04:09:22 42° NNE 04:18:10 10° E visible
28 Feb - 06:05:41 10° NW 06:15:20 85° NE 06:24:39 10° SE daylight
28 Feb - 08:11:49 10° WNW 08:19:25 28° SW 08:26:53 10° S daylight
28 Feb - 21:20:06 10° S 21:28:40 32° SE 21:37:06 10° ENE visible
28 Feb - 23:22:52 10° SW 23:33:04 83° NW 23:42:59 10° NE visible
01 Mar - 01:29:52 10° W 01:39:11 42° NNW 01:48:15 10° NE visible
01 Mar - 03:37:13 10° NW 03:46:20 41° NNE 03:55:08 10° E visible
01 Mar - 05:42:44 10° NW 05:52:25 81° NE 06:01:44 10° ESE visible
01 Mar - 07:48:43 10° WNW 07:56:35 31° SW 08:04:19 10° S daylight
01 Mar - 20:57:28 10° S 21:05:48 30° SE 21:14:00 10° ENE visible
01 Mar - 22:59:55 10° SW 23:10:06 87° NW 23:20:03 10° NE night (unlit)
02 Mar - 01:06:45 10° W 01:16:09 43° NNW 01:25:18 10° NE visible
02 Mar - 03:14:11 10° WNW 03:23:18 40° N 03:32:06 10° ENE visible
02 Mar - 05:19:47 10° NW 05:29:29 78° NNE 05:38:50 10° ESE visible
02 Mar - 07:25:38 10° WNW 07:33:45 33° SW 07:41:44 10° S daylight
02 Mar - 20:34:52 10° S 20:42:56 28° SE 20:50:53 10° ENE visible
02 Mar - 22:36:57 10° SW 22:47:09 89° SSE 22:57:08 10° NE night (unlit)
03 Mar - 00:43:38 10° W 00:53:07 44° NNW 01:02:21 10° NE visible
03 Mar - 02:51:09 10° WNW 03:00:16 40° N 03:09:04 10° ENE visible
03 Mar - 04:56:50 10° NW 05:06:33 74° NNE 05:15:54 10° ESE visible
03 Mar - 07:02:35 10° WNW 07:10:55 36° SW 07:19:05 10° SSE daylight
03 Mar - 20:12:20 10° S 20:20:04 25° SE 20:27:44 10° ENE visible
03 Mar - 22:14:00 10° SW 22:24:13 85° SE 22:34:12 10° NE visible
04 Mar - 00:20:32 10° W 00:30:05 45° NNW 00:39:23 10° NE visible
04 Mar - 02:28:05 10° WNW 02:37:13 39° N 02:46:02 10° ENE visible
04 Mar - 04:33:52 10° NW 04:43:36 71° NNE 04:52:58 10° ESE visible
04 Mar - 06:39:31 10° WNW 06:48:05 39° SW 06:56:27 10° SSE daylight
04 Mar - 19:49:48 10° S 19:57:12 23° SE 20:04:32 10° ENE visible
04 Mar - 21:51:05 10° SW 22:01:16 81° SE 22:11:16 10° NE visible
04 Mar - 23:57:25 10° W 00:07:03 47° NNW 00:16:27 10° NE visible
05 Mar - 02:05:02 10° WNW 02:14:11 39° N 02:22:59 10° ENE visible
05 Mar - 04:10:56 10° NW 04:20:40 68° NNE 04:30:01 10° ESE visible
05 Mar - 06:16:29 10° WNW 06:25:15 42° SW 06:33:46 10° SSE daylight
05 Mar - 19:27:21 10° S 19:34:21 21° SE 19:41:19 10° E visible
05 Mar - 21:28:10 10° SW 21:38:20 77° SE 21:48:21 10° NE visible
05 Mar - 23:34:19 10° W 23:44:01 48° NNW 23:53:29 10° NE visible
06 Mar - 01:41:59 10° WNW 01:51:07 38° N 01:59:58 10° ENE visible
06 Mar - 03:47:58 10° NW 03:57:43 65° NNE 04:07:03 10° ESE visible
06 Mar - 05:53:28 10° WNW 06:02:24 45° SW 06:11:05 10° SSE daylight
06 Mar - 19:04:56 10° SSE 19:11:30 19° SE 19:18:02 10° E visible
06 Mar - 21:05:17 10° SW 21:15:24 73° SE 21:25:24 10° ENE visible
06 Mar - 23:11:14 10° W 23:21:00 50° NNW 23:30:33 10° NE visible
